This is the latest recevied weather packets stored in our database for station/object W5GBS-9. If no packets are shown the sender has not sent any weather packets the latest 10 day(s).
| Time | Temp. | Humidity | Pressure | Rain* | Wind** | Luminosity | Snow |
|---|---|---|---|---|---|---|---|
| 1787877556 | 23.33° C | 100% | 1014 hPa | 0 mm | - | - | - |
| 1787876836 | 23.89° C | 100% | 1012.5 hPa | 0 mm | - | - | - |
| 1787876115 | 25° C | 100% | 1013.5 hPa | 0 mm | - | - | - |
| 1787875394 | 27.78° C | 100% | 1012.1 hPa | 0 mm | - | - | - |
| 1787874674 | 31.67° C | 100% | 1011.9 hPa | 0 mm | - | - | - |
| 1787873953 | 37.22° C | 100% | 1011.3 hPa | 0 mm | - | - | - |
| 1787872510 | 37.78° C | 100% | 1011.2 hPa | 0 mm | - | - | - |
| 1787871791 | 37.78° C | 100% | 1011.3 hPa | 0 mm | - | - | - |
| 1787871070 | 37.78° C | 100% | 1011.1 hPa | 0 mm | - | - | - |
| 1787869629 | 37.78° C | 100% | 1010.9 hPa | 0 mm | - | - | - |
| 1787868908 | 37.22° C | 100% | 1010.9 hPa | 0 mm | - | - | - |
| 1787868187 | 37.22° C | 100% | 1011.2 hPa | 0 mm | - | - | - |
| 1787867467 | 37.22° C | 100% | 1011.4 hPa | 0 mm | - | - | - |
| 1787866746 | 37.22° C | 100% | 1011.4 hPa | 0 mm | - | - | - |
| 1787866025 | 37.78° C | 100% | 1011.7 hPa | 0 mm | - | - | - |
| 1787865305 | 37.22° C | 100% | 1012 hPa | 0 mm | - | - | - |
| 1787864584 | 36.67° C | 100% | 1012.1 hPa | 0 mm | - | - | - |
| 1787863864 | 36.67° C | 100% | 1012.4 hPa | 0 mm | - | - | - |
| 1787862422 | 36.11° C | 100% | 1013 hPa | 0 mm | - | - | - |
| 1787861701 | 35° C | 100% | 1013.4 hPa | 0 mm | - | - | - |
| 1787860981 | 34.44° C | 100% | 1013.7 hPa | 0 mm | - | - | - |
| 1787859539 | 33.89° C | 100% | 1014.1 hPa | 0 mm | - | - | - |
| 1787858098 | 33.89° C | 100% | 1014.5 hPa | 0 mm | - | - | - |
| 1787857377 | 34.44° C | 100% | 1014.8 hPa | 0 mm | - | - | - |
| 1787856656 | 33.89° C | 100% | 1014.8 hPa | 0 mm | - | - | - |
* Rain latest hour (hover to see other rain measurements)
** Current wind speed in m/s (hover to see current wind gust speed)